SCP
0 0 0 0 0 0 0 0 0 0 0 0 0 0 0 0 0 0 0 0 0 0 0 0 0 0 0 0 0 0 0 0 0 0 0 0 0 0 0 0 0 0 0
0 0 0 0 0 0 0 0 0 0 0 0 0 0 0 0 0 0 0 0 0 0 0 0 0 0 0 0 0 0 0 0 0 0 0 0 0 0 0 0 0 0 0
0 0 0 0 0 0 0 0 0 0 0 0 0 0 0 0 0 0 0 0 0 0 0 0 0 0 0 0 0 0 0 0 0 0 0 0 0 0 0 0 0 0 0
0 0 0 0 0 0 0 0 0 0 0 0 0 0 0 0 0 0 0 0 0 0 0 0 0 0 0 0 0 0 0 0 0 0 0 0 0 0 0 0 0 0 0
0 0 0 0 0 0 0 0 0 0 0 0 0 0 0 0 0 0 0 0 0 0 0 0 0 0 0 0 0 0 0 0 0 0 0 0 0 0 0 0 0 0 0
0 0 0 0 0 0 0 0 0 0 0 0 0 0 0 0 0 0 0 0 0 0 0 0 0 0 0 0 0 0 0 0 0 0 0 0 0 0 0 0 0 0 0
0 0 0 0 0 0 0 0 0 0 0 0 0 0 0 0 0 0 0 0 0 0 0 0 0 0 0 0 0 0 0 0 0 0 0 0 0 0 0 0 0 0 0
0 0 0 0 0 0 0 0 0 0 0 0 0 0 0 0 0 0 0 0 0 0 0 0 0 0 0 0 0 0 0 0 0 0 0 0 0 0 0 0 0 0 0
0 0 0 0 0 0 0 0 0 0 0 0 0 0 0 0 0 0 0 0 0 0 0 0 0 0 0 0 0 0 0 0 0 0 0 0 0 0 0 0 0 0 0
0 0 0 0 0 0 0 0 0 0 0 0 0 0 0 0 0 0 0 0 0 0 0 0 0 0 0 0 0 0 0 0 0 0 0 0 0 0 0 0 0 0 0
0 0 0 0 0 0 0 0 0 0 0 0 0 0 0 0 0 0 0 0 0 0 0 0 0 0 0 0 0 0 0 0 0 0 0 0 0 0 0 0 0 0 0
0 0 0 0 0 0 0 0 0 0 0 0 0 0 0 0 0 0 0 0 0 0 0 0 0 0 0 0 0 0 0 0 0 0 0 0 0 0 0 0 0 0 0
0 0 0 0 0 0 0 0 0 0 0 0 0 0 0 0 0 0 0 0 0 0 0 0 0 0 0 0 0 0 0 0 0 0 0 0 0 0 0 0 0 0 0
0 0 0 0 0 0 0 0 0 0 0 0 0 0 0 0 0 0 0 0 0 0 0 0 0 0 0 0 0 0 0 0 0 0 0 0 0 0 0 0 0 0 0
0 0 0 0 0 0 0 0 0 0 0 0 0 0 0 0 0 0 0 0 0 0 0 0 0 0 0 0 0 0 0 0 0 0 0 0 0 0 0 0 0 0 0
0 0 0 0 0 0 0 0 0 0 0 0 0 0 0 0 0 0 0 0 0 0 0 0 0 0 0 0 0 0 0 0 0 0 0 0 0 0 0 0 0 0 0
0 0 0 0 0 0 0 0 0 0 0 0 0 0 0 0 0 0 0 0 0 0 0 0 0 0 0 0 0 0 0 0 0 0 0 0 0 0 0 0 0 0 0
0 0 0 0 0 0 0 0 0 0 0 0 0 0 0 0 0 0 0 0 0 0 0 0 0 0 0 0 0 0 0 0 0 0 0 0 0 0 0 0 0 0 0
0 0 0 0 0 0 0 0 0 0 0 0 0 0 0 0 0 0 0 0 0 0 0 0 0 0 0 0 0 0 0 0 0 0 0 0 0 0 0 0 0 0 0
0 0 0 0 0 0 0 0 0 0 0 0 0 0 0 0 0 0 0 0 0 0 0 0 0 0 0 0 0 0 0 0 0 0 0 0 0 0 0 0 0 0 0
0 0 0 0 0 0 0 0 0 0 0 0 0 0 0 0 0 0 0 0 0 0 0 0 0 0 0 0 0 0 0 0 0 0 0 0 0 0 0 0 0 0 0
0 0 0 0 0 0 0 0 0 0 0 0 0 0 0 0 0 0 0 0 0 0 0 0 0 0 0 0 0 0 0 0 0 0 0 0 0 0 0 0 0 0 0
0 0 0 0 0 0 0 0 0 0 0 0 0 0 0 0 0 0 0 0 0 0 0 0 0 0 0 0 0 0 0 0 0 0 0 0 0 0 0 0 0 0 0
0 0 0 0 0 0 0 0 0 0 0 0 0 0 0 0 0 0 0 0 0 0 0 0 0 0 0 0 0 0 0 0 0 0 0 0 0 0 0 0 0 0 0
0 0 0 0 0 0 0 0 0 0 0 0 0 0 0 0 0 0 0 0 0 0 0 0 0 0 0 0 0 0 0 0 0 0 0 0 0 0 0 0 0 0 0
0 0 0 0 0 0 0 0 0 0 0 0 0 0 0 0 0 0 0 0 0 0 0 0 0 0 0 0 0 0 0 0 0 0 0 0 0 0 0 0 0 0 0
Wind_Speed
5 5 4 3 3 3 3 3 3 3 4 4 4 5 6 6 6 6 4 4 7 9 11 12 12 12 12 12 12 12 12 12 13 13 13 13 13 13 14 14 14 14 15
6 5 5 4 4 3 3 3 4 4 4 4 6 6 7 7 7 7 6 4 4 6 8 9 9 9 10 10 11 11 12 12 12 13 13 13 14 14 14 15 15 16 16
7 5 4 4 4 4 4 4 4 4 4 5 6 7 6 7 7 7 6 4 3 1 3 6 7 8 9 10 10 11 11 12 13 13 13 14 14 14 15 15 16 16 17
8 6 5 4 4 3 3 4 4 4 4 5 5 5 6 6 7 6 5 3 2 1 2 5 6 8 9 10 11 12 12 13 13 14 14 15 15 15 16 17 17 17 17
8 6 5 4 5 4 3 3 4 4 5 5 5 6 6 6 5 4 3 1 1 1 2 2 3 5 9 11 12 13 13 14 15 15 16 16 16 17 17 18 18 18 19
8 7 5 5 5 4 4 4 4 3 4 4 6 6 6 5 3 2 1 1 1 1 2 3 4 3 6 10 12 13 14 15 16 16 17 17 18 18 18 19 19 19 20
8 7 5 5 5 4 4 4 3 4 3 3 5 5 4 3 3 1 2 2 2 2 3 5 5 6 6 9 10 12 15 16 17 17 18 18 19 19 20 20 20 21 21
8 6 7 5 5 4 4 4 3 3 2 2 3 4 4 2 1 2 3 4 4 4 5 6 7 8 8 7 8 12 14 16 18 18 19 19 20 20 21 21 21 22 22
8 8 7 6 5 5 4 4 3 4 3 1 2 3 3 3 5 3 4 4 5 5 6 7 8 9 9 7 7 9 13 17 18 19 20 20 21 21 22 22 22 23 23
8 7 7 6 6 4 4 4 4 3 3 2 2 2 3 3 4 5 4 4 6 8 8 7 8 8 8 7 7 11 14 17 19 20 21 22 22 23 23 23 23 24 24
7 7 7 7 6 5 5 4 4 4 3 3 2 2 3 3 5 5 7 7 6 6 7 8 8 7 7 7 7 10 15 18 20 21 21 22 23 23 24 24 24 24 25
6 8 7 7 6 5 5 5 4 4 3 4 3 3 4 4 4 5 7 9 9 7 8 7 7 7 6 7 9 12 17 19 20 20 21 22 23 23 24 25 25 25 25
7 9 8 7 6 5 5 5 4 4 4 5 5 4 4 5 5 6 7 9 10 8 7 6 6 6 7 7 8 13 17 19 19 20 21 22 23 23 24 25 25 26 26
8 10 9 8 7 6 6 5 4 4 4 5 5 5 4 5 5 5 6 7 9 8 7 9 6 6 6 8 10 16 14 18 19 21 22 23 23 24 24 25 25 26 26
8 10 9 8 7 7 6 5 4 5 4 5 5 6 5 5 5 5 6 6 7 8 9 8 6 7 8 9 12 13 14 17 21 22 23 23 23 24 25 25 25 25 25
10 10 9 9 8 7 6 6 5 4 5 5 4 6 6 5 5 5 6 7 7 9 11 8 9 11 12 10 14 15 14 20 21 21 22 23 24 24 25 25 25 25 25
11 11 10 9 8 7 7 6 6 6 6 6 6 7 8 7 6 6 6 7 8 9 12 12 11 11 14 14 13 13 13 14 13 20 22 24 25 25 25 25 25 25 25
11 10 9 9 8 7 7 7 6 6 7 7 7 8 8 7 9 8 7 8 9 10 11 15 12 12 14 14 15 15 13 12 13 19 23 24 25 25 25 24 24 24 24
10 10 9 9 8 7 7 7 7 7 7 8 8 8 9 9 10 8 9 9 9 9 10 12 13 11 11 12 14 14 15 13 13 15 20 21 23 24 24 25 24 24 23
10 10 9 8 7 7 7 6 6 7 8 8 8 9 9 10 10 10 9 10 10 11 11 11 12 11 11 13 12 12 12 11 12 12 15 17 20 22 23 23 23 23 23
9 9 9 8 7 6 6 6 6 8 9 9 9 10 10 11 13 12 10 10 11 10 10 11 11 12 11 11 11 11 13 12 13 12 12 12 12 12 14 18 20 20 21
9 9 9 8 8 6 8 11 9 8 9 10 10 10 10 11 14 17 18 18 17 14 13 12 12 13 14 13 12 12 12 13 13 9 11 12 12 13 12 12 17 21 22
10 9 9 9 8 8 10 12 12 10 10 10 11 10 9 9 12 12 14 17 18 20 20 16 15 15 16 14 15 15 14 14 14 12 12 14 12 13 12 12 20 22 22
9 9 9 8 8 8 11 12 12 11 11 11 11 11 12 12 11 12 12 12 14 14 15 14 13 15 15 15 14 14 15 14 14 12 11 13 12 12 12 11 17 19 19
9 8 8 8 8 8 10 12 11 9 9 11 11 11 12 13 15 16 14 14 15 13 15 19 21 21 23 23 19 12 11 11 13 11 10 10 11 11 11 11 11 14 15
8 7 7 8 8 8 9 11 12 7 9 9 9 10 14 15 16 17 14 14 15 14 13 13 15 16 15 16 18 13 10 11 12 10 8 7 9 9 9 7 7 8 9
Wind_Direction
190 192 202 204 216 224 228 242 255 267 278 289 289 293 298 301 302 301 297 295 305 309 311 312 312 312 312 312 312 311 310 307 304 301 299 297 294 291 289 287 285 283 281
197 199 206 210 220 229 240 254 265 278 286 289 294 296 298 301 297 298 301 297 285 310 317 320 324 325 325 324 322 321 319 316 313 310 306 302 299 297 294 291 289 287 284
201 202 208 209 218 227 237 249 256 267 279 284 285 292 296 296 298 299 304 306 308 318 341 344 344 345 343 339 334 331 327 323 319 315 310 306 303 300 297 294 292 289 287
199 199 204 211 212 215 231 245 259 265 272 282 293 300 295 296 297 306 303 301 313 339 49 22 2 358 350 342 335 331 326 321 317 313 310 307 304 301 298 295 293 291 288
195 198 206 206 199 206 225 237 255 275 287 295 301 300 297 298 304 296 290 293 336 337 346 46 351 345 341 336 330 325 320 316 313 309 307 304 301 299 296 294 291 289 287
193 198 200 199 196 207 218 231 248 262 287 300 298 293 294 300 287 282 271 226 240 306 317 333 318 322 320 323 322 319 316 314 311 307 304 301 298 296 295 293 291 289 286
188 192 192 193 199 212 219 231 248 257 272 303 295 299 286 266 272 243 249 272 271 285 294 314 320 323 313 313 310 316 317 314 310 307 304 301 299 296 294 292 290 288 286
185 189 191 191 192 200 205 211 229 255 259 290 306 310 307 254 162 249 277 285 288 286 293 307 314 313 311 309 312 312 314 313 311 308 305 302 300 298 295 293 291 289 287
182 183 190 189 186 195 198 202 214 235 249 239 283 300 308 315 323 276 274 282 288 295 300 307 307 309 307 304 306 313 316 315 311 308 306 304 302 299 296 294 292 290 289
176 177 179 181 180 186 189 191 206 219 231 240 230 254 276 296 293 303 284 278 294 297 297 302 304 305 304 305 304 306 314 314 312 309 307 305 303 300 298 296 294 292 290
171 172 172 173 176 181 184 181 190 202 220 240 245 245 252 258 258 271 290 299 295 287 295 299 298 298 304 303 303 312 315 312 309 307 306 305 303 301 299 298 296 294 291
167 172 172 174 176 176 178 184 193 205 220 229 239 244 252 258 263 264 280 295 299 301 300 293 289 293 300 302 301 309 309 306 306 306 305 304 302 301 299 297 295 293 290
172 174 174 177 175 175 178 184 196 208 219 229 240 250 254 260 272 273 279 290 295 298 296 285 279 288 293 297 302 311 304 301 303 304 304 302 301 300 298 296 294 293 291
174 170 174 176 174 174 179 190 201 211 223 232 244 250 256 261 261 262 272 289 296 292 284 287 292 287 290 297 300 304 295 297 300 301 301 300 300 298 297 295 293 292 290
163 170 173 174 175 179 187 194 212 214 226 236 243 248 255 260 259 261 263 265 275 291 296 299 298 295 296 297 298 296 296 298 300 299 298 297 297 297 296 294 293 291 289
165 169 174 177 179 184 192 202 214 222 232 238 245 252 257 261 261 258 257 260 259 268 280 289 294 294 298 294 295 295 294 297 294 294 296 296 297 296 295 294 292 291 289
170 174 176 180 184 191 197 208 218 222 235 243 243 252 259 264 265 263 261 261 262 264 274 284 289 294 296 295 297 296 296 296 295 295 297 298 297 296 295 293 292 290 290
174 176 177 183 188 195 202 213 222 228 238 247 252 256 261 263 264 267 265 266 267 268 275 286 291 294 295 297 295 294 295 294 293 296 296 296 296 295 294 293 292 291 290
174 176 180 187 192 198 206 217 227 235 243 250 255 257 262 265 268 268 269 271 272 274 274 280 288 293 294 294 294 292 292 292 294 295 296 294 294 295 294 293 293 292 293
176 179 184 190 195 202 210 218 227 237 245 250 253 255 259 261 266 272 274 274 276 278 278 280 285 290 291 293 292 294 294 293 293 296 294 293 292 294 293 292 291 291 291
179 180 185 191 198 204 209 210 222 238 248 253 253 253 255 258 264 268 270 274 276 276 279 281 283 288 290 293 293 295 293 295 293 294 293 293 295 294 295 293 291 289 289
179 183 191 196 204 211 213 221 235 246 251 255 259 261 261 259 261 265 268 272 275 278 280 280 283 285 289 292 293 293 294 295 295 296 295 295 295 292 291 289 290 291 291
183 191 197 204 214 219 217 230 239 254 257 259 262 266 266 265 268 270 274 275 275 273 273 276 280 282 288 291 293 292 289 289 290 295 296 292 293 290 291 290 293 292 292
189 196 202 210 222 224 224 237 246 254 259 261 262 265 269 272 271 275 278 276 274 273 273 273 273 278 282 286 287 288 289 289 287 286 286 288 293 293 296 294 296 295 294
193 200 206 214 225 230 227 239 248 257 259 262 263 264 266 270 273 276 278 278 278 278 276 274 274 277 281 285 288 290 290 291 292 294 293 287 293 300 298 293 293 299 300
195 199 212 221 230 240 233 240 247 255 261 265 267 265 262 265 273 276 276 279 281 284 287 286 282 282 283 285 286 282 284 286 290 294 294 291 297 306 299 293 299 305 302